Fort Rucker / Ozark, AL

6:57 PM CDT on June 22, 2017 (GMT -0500)
Fort Rucker / Ozark

Weather History for KHEY - April, 2014

Change the Weather History Date:

Saturday, April 12, 2014

  Actual Average (KOZR) Record (KOZR)
Temperature  
Mean Temperature 64 °F -  
Max Temperature 81 °F 73 °F 84 °F (2001)
Min Temperature 48 °F 51 °F 42 °F (1998)
Growing Degree Days 14 (Base 50)    
Moisture  
Dew Point 53 °F    
Average Humidity 66    
Maximum Humidity 93    
Minimum Humidity 38    
Precipitation  
Precipitation 0.00 in - - ()
Sea Level Pressure  
Sea Level Pressure 29.81 in    
Wind  
Wind Speed 3 mph (SSE)    
Max Wind Speed 10 mph    
Max Gust Speed 18 mph    
Visibility 10 miles    
Events      
Averages and records for this station are not official NWS values.
T = Trace of Precipitation, MM = Missing Value Source: NWS Daily Summary

Daily Weather History Graph

Daily Weather History Graph

Search for Another Location

Airport or City:

Trip Planner

Search our weather history database for the weather conditions in past years. The results will help you decide how hot, cold, wet, or windy it might be!

Date:

Astronomy

Apr. 12, 2014 Rise Set
Actual Time 6:17 AM CDT 7:09 PM CDT
Civil Twilight 5:53 AM CDT 7:34 PM CDT
Nautical Twilight 5:23 AM CDT 8:03 PM CDT
Astronomical Twilight 4:53 AM CDT 8:33 PM CDT
Moon 4:55 PM CDT (4/12) 4:34 AM CDT (4/12)
Length of Visible Light 13h 40m
Length of Day
12h 51m
Waxing Gibbous, 93% of the Moon is Illuminated
Apr 12
Waxing Gibbous
Apr 15
Full
Apr 22
Last Quarter
Apr 29
New
May 6
First Quarter

Hourly Weather History & Observations

Time (CDT) Temp. Heat Index Dew Point Humidity Pressure Visibility Wind Dir Wind Speed Gust Speed Precip Events Conditions
12:53 AM 55.0 °F - 52.0 °F 89% 29.84 in 10.0 mi North 3.5 mph - N/A   Clear
1:53 AM 53.1 °F - 50.0 °F 89% 29.83 in 10.0 mi Calm Calm - N/A   Clear
2:53 AM 53.1 °F - 50.0 °F 89% 29.82 in 10.0 mi Calm Calm - N/A   Clear
3:53 AM 51.1 °F - 48.9 °F 92% 29.83 in 10.0 mi Calm Calm - N/A   Clear
4:53 AM 51.1 °F - 48.0 °F 89% 29.83 in 10.0 mi Calm Calm - N/A   Clear
5:53 AM 48.9 °F - 46.9 °F 93% 29.85 in 9.0 mi Calm Calm - N/A   Clear
6:53 AM 50.0 °F - 48.0 °F 93% 29.86 in 10.0 mi Calm Calm - N/A   Clear
7:53 AM 57.0 °F - 54.0 °F 89% 29.86 in 8.0 mi East 3.5 mph - N/A   Clear
8:53 AM 64.0 °F - 55.0 °F 73% 29.87 in 10.0 mi Calm Calm - N/A   Clear
9:53 AM 71.1 °F - 53.1 °F 53% 29.88 in 10.0 mi ESE 5.8 mph - N/A   Clear
10:53 AM 73.9 °F - 53.1 °F 48% 29.88 in 10.0 mi East 6.9 mph - N/A   Clear
11:53 AM 77.0 °F - 53.1 °F 43% 29.86 in 10.0 mi SE 6.9 mph - N/A   Clear
12:53 PM 78.1 °F - 53.1 °F 42% 29.83 in 10.0 mi SE 10.4 mph 18.4 mph N/A   Partly Cloudy
1:53 PM 79.0 °F - 53.1 °F 40% 29.82 in 10.0 mi ESE 10.4 mph - N/A   Clear
2:53 PM 80.1 °F - 52.0 °F 38% 29.79 in 10.0 mi SSE 9.2 mph - N/A   Clear
3:53 PM 80.1 °F 79.9 °F 53.1 °F 39% 29.77 in 10.0 mi Variable 6.9 mph - N/A   Partly Cloudy
4:53 PM 81.0 °F 80.4 °F 53.1 °F 38% 29.75 in 10.0 mi Variable 4.6 mph - N/A   Partly Cloudy
5:53 PM 81.0 °F 80.5 °F 54.0 °F 39% 29.75 in 10.0 mi Variable 3.5 mph - N/A   Scattered Clouds
6:53 PM 77.0 °F - 55.0 °F 47% 29.74 in 10.0 mi Calm Calm - N/A   Clear
7:53 PM 71.1 °F - 57.0 °F 61% 29.76 in 10.0 mi SSW 6.9 mph - N/A   Mostly Cloudy
8:53 PM 71.1 °F - 57.0 °F 61% 29.78 in 10.0 mi SSW 3.5 mph - N/A   Partly Cloudy
9:53 PM 68.0 °F - 57.0 °F 68% 29.79 in 10.0 mi SW 3.5 mph - N/A   Clear
10:53 PM 66.0 °F - 57.9 °F 75% 29.79 in 10.0 mi SSW 3.5 mph - N/A   Clear
11:53 PM 61.0 °F - 57.0 °F 87% 29.78 in 10.0 mi Calm Calm - N/A   Clear